Find Starlink 31909

NORAD ID: 59663 Int'l Des: 2024-084 Owner: SPXS Country: US Constellation: starlink operational
LEOCIRCULAR

現在のビュー

3D地球を読み込み中...

About Starlink 31909

Starlink 31909 (NORAD 59663) is a starlink constellation satellite (v2 mini) launched May 6, 2024 by SPXS of US. It operates in LEO, CIRCULAR orbit with a mass of 730.00 kg.

次回通過

Passes for default location (London). Set your location on the main map for personalized predictions.

高度履歴

Loading altitude history...

軌道要素

1 59663U 24084K 26236.18212766 .00000989 00000-0 45445-4 0 9991
2 59663 43.0008 175.5250 0001146 275.3532 84.7189 15.27578529129998
Epoch: Aug 24, 2026 • Age: 19 hours

現在のステータス

高度 486.9 km
遠地点 / 近地点 N/A
速度 7.63 km/s
衛星直下点 42.87°N, 58.47°W
打ち上げ日 May 6, 2024
運用期間 2.2 years
タイプ internet

技術仕様

分類 Payload
質量 730.00 kg
乾燥質量 700.00 kg
総質量 730.00 kg
長さ 0.30 m
直径 4.10 m
スパン 29.00 m
形状 Box + pan
製造者 SPXS
バスタイプ Starlink V2M
フェーズステータス In Orbit
所有者/国 SPXS/US

Most Searched